Weather History for KFFO - January, 2014

Change the Weather History Date:

Tuesday, January 7, 2014

  Actual Average Record
Temperature  
Mean Temperature 2 °F -  
Max Temperature 11 °F 36 °F 66 °F (2008)
Min Temperature -8 °F 21 °F -8 °F (2014)
Degree Days  
Heating Degree Days 64    
Moisture  
Dew Point -9 °F    
Average Humidity 63    
Maximum Humidity 69    
Minimum Humidity 56    
Precipitation  
Precipitation 0.00 in - - ()
Snow  
Snow 0.00 in - - ()
Snow Depth 1.00 in    
Sea Level Pressure  
Sea Level Pressure 30.45 in    
Wind  
Wind Speed 14 mph (SW)    
Max Wind Speed 21 mph    
Max Gust Speed 26 mph    
Visibility 10 miles    
Events      
Averages and records for this station are not official NWS values.
T = Trace of Precipitation, MM = Missing Value Source: NWS Daily Summary

Daily Weather History Graph

Daily Weather History Graph

Search for Another Location

Airport or City:

Trip Planner

Search our weather history database for the weather conditions in past years. The results will help you decide how hot, cold, wet, or windy it might be!

Date:

Astronomy

Jan. 07, 2014 Rise Set
Actual Time 7:57 AM EST 5:27 PM EST
Civil Twilight 7:27 AM EST 5:57 PM EST
Nautical Twilight 6:53 AM EST 6:31 PM EST
Astronomical Twilight 6:21 AM EST 7:04 PM EST
Moon 11:46 AM EST (1/7) No Moon Set
Length of Visible Light 10h 30m
Length of Day
9h 30m
Waxing Crescent, 45% of the Moon is Illuminated
Jan 7
Waxing Crescent
Jan 7
First Quarter
Jan 15
Full
Jan 24
Last Quarter
Jan 30
New

Hourly Weather History & Observations

Time (EST) Temp. Windchill Dew Point Humidity Pressure Visibility Wind Dir Wind Speed Gust Speed Precip Events Conditions
12:58 AM -8.5 °F -30.2 °F -17.3 °F 65% 30.41 in 10.0 mi WSW 15.0 mph 20.7 mph N/A   Clear
1:58 AM -8.3 °F -27.5 °F -16.8 °F 67% 30.42 in 10.0 mi SW 11.5 mph 20.7 mph N/A   Clear
2:58 AM -7.8 °F -29.3 °F -16.6 °F 65% 30.44 in 10.0 mi SW 15.0 mph - N/A   Clear
3:58 AM -7.8 °F -30.7 °F -16.2 °F 67% 30.42 in 10.0 mi SW 17.3 mph - N/A   Clear
4:58 AM -7.2 °F -29.3 °F -15.5 °F 67% 30.43 in 10.0 mi SW 16.1 mph - N/A   Clear
5:58 AM -6.9 °F -24.8 °F -15.5 °F 66% 30.43 in 10.0 mi WSW 10.4 mph - N/A   Clear
6:58 AM -6.7 °F -25.5 °F -15.2 °F 67% 30.45 in 10.0 mi SW 11.5 mph 21.9 mph N/A   Clear
7:58 AM -6.9 °F -28.2 °F -14.6 °F 69% 30.46 in 10.0 mi SW 15.0 mph - N/A   Clear
8:58 AM -5.6 °F -27.3 °F -13.4 °F 69% 30.49 in 10.0 mi SW 16.1 mph - N/A   Clear
9:58 AM -3.8 °F -26.2 °F -11.9 °F 68% 30.52 in 10.0 mi SW 18.4 mph 25.3 mph N/A   Partly Cloudy
10:58 AM -1.7 °F -23.4 °F -10.7 °F 66% 30.50 in 10.0 mi SW 18.4 mph - N/A   Clear
11:03 AM -2.2 °F -25.2 °F -11.2 °F 66% 30.40 in 10.0 mi SW 20.7 mph 26.5 mph N/A   Partly Cloudy
11:58 AM 0.7 °F -19.1 °F -9.0 °F 64% 30.48 in 10.0 mi SW 16.1 mph - N/A   Clear
12:58 PM 3.2 °F -17.1 °F -7.1 °F 62% 30.45 in 10.0 mi SW 18.4 mph - N/A   Clear
1:58 PM 5.4 °F -13.1 °F -6.3 °F 59% 30.44 in 10.0 mi SW 16.1 mph - N/A   Mostly Cloudy
2:58 PM 6.6 °F -10.9 °F -5.4 °F 58% 30.43 in 10.0 mi SW 15.0 mph - N/A   Scattered Clouds
3:58 PM 7.3 °F -10.0 °F -5.3 °F 56% 30.44 in 10.0 mi SW 15.0 mph - N/A   Scattered Clouds
4:58 PM 7.5 °F -6.9 °F -5.3 °F 56% 30.44 in 10.0 mi SW 10.4 mph - N/A   Mostly Cloudy
5:58 PM 8.4 °F -4.9 °F -4.0 °F 57% 30.43 in 10.0 mi SSW 9.2 mph - N/A   Overcast
6:58 PM 9.1 °F -4.0 °F -2.6 °F 59% 30.44 in 10.0 mi SSW 9.2 mph - N/A   Overcast
7:58 PM 9.9 °F -4.7 °F -1.7 °F 60% 30.45 in 10.0 mi SSW 11.5 mph - N/A   Overcast
8:58 PM 10.2 °F -2.7 °F -0.6 °F 62% 30.44 in 10.0 mi SSW 9.2 mph - N/A   Overcast
9:58 PM 10.8 °F -2.8 °F -0.0 °F 62% 30.45 in 10.0 mi SSW 10.4 mph - N/A   Overcast
10:58 PM 11.3 °F -2.9 °F 0.7 °F 62% 30.44 in 10.0 mi South 11.5 mph - N/A   Overcast
11:58 PM 11.7 °F -1.7 °F 1.8 °F 65% 30.44 in 10.0 mi South 10.4 mph - N/A   Overcast